Time,TemperatureF,DewpointF,PressureIn,WindDirection,WindDirectionDegrees,WindSpeedMPH,WindSpeedGustMPH,Humidity,HourlyPrecipIn,Conditions,Clouds,dailyrainin,SoftwareType,DateUTC
2013-07-10 00:00:00,70.2,48.4,29.65,SSE,164,0.0,0.0,46,0.00,,---,0.00,VWS V13.01,2013-07-10 04:00:00,
2013-07-10 00:01:00,70.3,49.2,29.65,SSE,164,0.0,0.0,47,0.00,,---,0.00,VWS V13.01,2013-07-10 04:01:00,
2013-07-10 00:02:00,70.2,49.0,29.65,SSE,164,0.0,0.0,47,0.00,,---,0.00,VWS V13.01,2013-07-10 04:02:00,
2013-07-10 00:03:00,70.2,49.6,29.65,SSE,163,0.0,0.0,48,0.00,,---,0.00,VWS V13.01,2013-07-10 04:03:00,
2013-07-10 00:04:00,70.2,49.6,29.65,SSE,163,0.0,0.0,48,0.00,,---,0.00,VWS V13.01,2013-07-10 04:04:00,
2013-07-10 00:06:00,70.2,49.6,29.65,SSE,163,0.0,0.0,48,0.00,,---,0.00,VWS V13.01,2013-07-10 04:06:00,
2013-07-10 00:08:00,70.2,49.0,29.65,SSE,164,0.0,0.0,47,0.00,,---,0.00,VWS V13.01,2013-07-10 04:08:00,
2013-07-10 00:09:00,70.2,49.0,29.65,SSE,164,0.0,0.0,47,0.00,,---,0.00,VWS V13.01,2013-07-10 04:09:00,
2013-07-10 00:10:00,70.2,49.0,29.65,SSE,163,0.0,0.0,47,0.00,,---,0.00,VWS V13.01,2013-07-10 04:10:00,
2013-07-10 00:12:00,70.2,49.0,29.65,SSE,163,0.0,0.0,47,0.00,,---,0.00,VWS V13.01,2013-07-10 04:12:00,
2013-07-10 00:14:00,70.0,48.8,29.65,SSE,164,0.0,0.0,47,0.00,,---,0.00,VWS V13.01,2013-07-10 04:14:00,
2013-07-10 00:15:00,70.0,48.8,29.65,SSE,164,0.0,0.0,47,0.00,,---,0.00,VWS V13.01,2013-07-10 04:15:00,
2013-07-10 00:16:00,70.0,48.8,29.65,SSE,164,0.0,0.0,47,0.00,,---,0.00,VWS V13.01,2013-07-10 04:16:00,
2013-07-10 00:18:00,70.0,48.8,29.65,SSE,164,0.0,0.0,47,0.00,,---,0.00,VWS V13.01,2013-07-10 04:18:00,
2013-07-10 00:20:00,70.0,48.8,29.65,SSE,163,0.0,0.0,47,0.00,,---,0.00,VWS V13.01,2013-07-10 04:20:00,
2013-07-10 00:22:00,69.8,49.2,29.65,SSE,164,0.0,0.0,48,0.00,,---,0.00,VWS V13.01,2013-07-10 04:22:00,
2013-07-10 00:24:00,69.8,49.2,29.65,SSE,164,0.0,0.0,48,0.00,,---,0.00,VWS V13.01,2013-07-10 04:24:00,
2013-07-10 00:26:00,70.0,49.4,29.65,SSE,164,0.0,0.0,48,0.00,,---,0.00,VWS V13.01,2013-07-10 04:26:00,
2013-07-10 00:28:00,69.8,49.8,29.65,SSE,164,0.0,0.0,49,0.00,,---,0.00,VWS V13.01,2013-07-10 04:28:00,
2013-07-10 00:30:00,69.8,49.8,29.65,SSE,164,0.0,0.0,49,0.00,,---,0.00,VWS V13.01,2013-07-10 04:30:00,
2013-07-10 00:32:00,69.8,50.3,29.65,SSE,164,0.0,0.0,50,0.00,,---,0.00,VWS V13.01,2013-07-10 04:32:00,
2013-07-10 00:33:00,69.8,50.3,29.65,SSE,164,0.0,0.0,50,0.00,,---,0.00,VWS V13.01,2013-07-10 04:33:00,
2013-07-10 00:34:00,69.8,50.3,29.65,SSE,164,0.0,0.0,50,0.00,,---,0.00,VWS V13.01,2013-07-10 04:34:00,
2013-07-10 00:36:00,69.8,50.3,29.65,SSE,163,0.0,0.0,50,0.00,,---,0.00,VWS V13.01,2013-07-10 04:36:00,
2013-07-10 00:38:00,69.8,50.3,29.65,SSE,164,0.0,0.0,50,0.00,,---,0.00,VWS V13.01,2013-07-10 04:38:00,
2013-07-10 00:40:00,69.8,50.9,29.65,SSE,164,0.0,0.0,51,0.00,,---,0.00,VWS V13.01,2013-07-10 04:40:00,
2013-07-10 00:42:00,69.6,50.7,29.65,SSE,164,0.0,0.0,51,0.00,,---,0.00,VWS V13.01,2013-07-10 04:42:00,
2013-07-10 00:44:00,69.6,50.2,29.65,SSE,164,0.0,0.0,50,0.00,,---,0.00,VWS V13.01,2013-07-10 04:44:00,
2013-07-10 00:45:00,69.6,50.7,29.65,SSE,164,0.0,0.0,51,0.00,,---,0.00,VWS V13.01,2013-07-10 04:45:00,
2013-07-10 00:46:00,69.4,50.5,29.65,SSE,164,0.0,0.0,51,0.00,,---,0.00,VWS V13.01,2013-07-10 04:46:00,
2013-07-10 00:48:00,69.4,51.1,29.62,SSE,164,0.0,0.0,52,0.00,,---,0.00,VWS V13.01,2013-07-10 04:48:00,
2013-07-10 00:50:00,69.4,51.1,29.62,SSE,164,0.0,0.0,52,0.00,,---,0.00,VWS V13.01,2013-07-10 04:50:00,
2013-07-10 00:51:00,69.4,52.1,29.62,SSE,164,0.0,0.0,54,0.00,,---,0.00,VWS V13.01,2013-07-10 04:51:00,
2013-07-10 00:52:00,69.4,52.6,29.62,SSE,164,0.0,0.0,55,0.00,,---,0.00,VWS V13.01,2013-07-10 04:52:00,
2013-07-10 00:54:00,69.6,55.1,29.62,SSE,164,0.0,0.0,60,0.00,,---,0.00,VWS V13.01,2013-07-10 04:54:00,
2013-07-10 00:56:00,69.6,56.0,29.62,SSE,163,0.0,0.0,62,0.00,,---,0.00,VWS V13.01,2013-07-10 04:56:00,
2013-07-10 00:58:00,69.4,55.4,29.62,SSE,164,0.0,0.0,61,0.00,,---,0.00,VWS V13.01,2013-07-10 04:58:00,
2013-07-10 01:00:00,69.4,55.4,29.62,SSE,163,0.0,0.0,61,0.00,,---,0.00,VWS V13.01,2013-07-10 05:00:00,
2013-07-10 01:02:00,69.4,55.9,29.65,SSE,164,0.0,0.0,62,0.00,,---,0.00,VWS V13.01,2013-07-10 05:02:00,
2013-07-10 01:04:00,69.4,56.3,29.65,SSE,164,0.0,0.0,63,0.00,,---,0.00,VWS V13.01,2013-07-10 05:04:00,
2013-07-10 01:06:00,69.4,57.2,29.65,SSE,164,0.0,0.0,65,0.00,,---,0.00,VWS V13.01,2013-07-10 05:06:00,
2013-07-10 01:07:00,69.4,58.0,29.65,SSE,164,0.0,0.0,67,0.00,,---,0.00,VWS V13.01,2013-07-10 05:07:00,
2013-07-10 01:08:00,69.4,58.0,29.65,SSE,164,0.0,0.0,67,0.00,,---,0.00,VWS V13.01,2013-07-10 05:08:00,
2013-07-10 01:10:00,69.4,58.4,29.65,SSE,163,0.0,0.0,68,0.00,,---,0.00,VWS V13.01,2013-07-10 05:10:00,
2013-07-10 01:12:00,69.4,58.4,29.65,SSE,164,0.0,0.0,68,0.00,,---,0.00,VWS V13.01,2013-07-10 05:12:00,
2013-07-10 01:14:00,69.4,58.4,29.65,SSE,164,0.0,0.0,68,0.00,,---,0.00,VWS V13.01,2013-07-10 05:14:00,
2013-07-10 01:16:00,69.4,58.4,29.65,SSE,164,0.0,0.0,68,0.00,,---,0.00,VWS V13.01,2013-07-10 05:16:00,
2013-07-10 01:18:00,69.4,58.4,29.62,SSE,164,0.0,0.0,68,0.00,,---,0.00,VWS V13.01,2013-07-10 05:18:00,
2013-07-10 01:20:00,69.4,58.0,29.62,SSE,164,0.0,0.0,67,0.00,,---,0.00,VWS V13.01,2013-07-10 05:20:00,
2013-07-10 01:22:00,69.4,58.0,29.62,SSE,163,0.0,0.0,67,0.00,,---,0.00,VWS V13.01,2013-07-10 05:22:00,
2013-07-10 01:24:00,69.4,58.0,29.62,SSE,164,0.0,0.0,67,0.00,,---,0.00,VWS V13.01,2013-07-10 05:24:00,
2013-07-10 01:26:00,69.4,58.0,29.62,SSE,164,0.0,0.0,67,0.00,,---,0.00,VWS V13.01,2013-07-10 05:26:00,
2013-07-10 01:28:00,69.4,58.0,29.62,SSE,163,0.0,0.0,67,0.00,,---,0.00,VWS V13.01,2013-07-10 05:28:00,
2013-07-10 01:30:00,69.4,58.0,29.62,SSE,163,0.0,0.0,67,0.00,,---,0.00,VWS V13.01,2013-07-10 05:30:00,
2013-07-10 01:32:00,69.4,58.4,29.62,SSE,163,0.0,0.0,68,0.00,,---,0.00,VWS V13.01,2013-07-10 05:32:00,
2013-07-10 01:34:00,69.4,58.8,29.62,SSE,163,0.0,0.0,69,0.00,,---,0.00,VWS V13.01,2013-07-10 05:34:00,
2013-07-10 01:35:00,69.4,58.8,29.62,SSE,164,0.0,0.0,69,0.00,,---,0.00,VWS V13.01,2013-07-10 05:35:00,
2013-07-10 01:36:00,69.4,58.8,29.62,SSE,164,0.0,0.0,69,0.00,,---,0.00,VWS V13.01,2013-07-10 05:36:00,
2013-07-10 01:38:00,69.4,59.2,29.62,SSE,163,0.0,0.0,70,0.00,,---,0.00,VWS V13.01,2013-07-10 05:38:00,
2013-07-10 01:40:00,69.4,59.2,29.62,SSE,164,0.0,0.0,70,0.00,,---,0.00,VWS V13.01,2013-07-10 05:40:00,
2013-07-10 01:42:00,69.4,59.2,29.62,SSE,163,0.0,0.0,70,0.00,,---,0.00,VWS V13.01,2013-07-10 05:42:00,
2013-07-10 01:44:00,69.4,59.2,29.62,SSE,164,0.0,0.0,70,0.00,,---,0.00,VWS V13.01,2013-07-10 05:44:00,
2013-07-10 01:46:00,69.3,58.7,29.62,SSE,164,0.0,0.0,69,0.00,,---,0.00,VWS V13.01,2013-07-10 05:46:00,
2013-07-10 01:48:00,69.4,58.8,29.62,SSE,164,0.0,0.0,69,0.00,,---,0.00,VWS V13.01,2013-07-10 05:48:00,
2013-07-10 01:50:00,69.4,59.2,29.62,SSE,164,0.0,0.0,70,0.00,,---,0.00,VWS V13.01,2013-07-10 05:50:00,
2013-07-10 01:52:00,69.4,59.2,29.62,SSE,163,0.0,0.0,70,0.00,,---,0.00,VWS V13.01,2013-07-10 05:52:00,
2013-07-10 01:53:00,69.3,59.1,29.62,SSE,164,0.0,0.0,70,0.00,,---,0.00,VWS V13.01,2013-07-10 05:53:00,
2013-07-10 01:54:00,69.3,59.1,29.62,SSE,164,0.0,0.0,70,0.00,,---,0.00,VWS V13.01,2013-07-10 05:54:00,
2013-07-10 01:56:00,69.3,59.1,29.62,SSE,163,0.0,0.0,70,0.00,,---,0.00,VWS V13.01,2013-07-10 05:56:00,
2013-07-10 01:58:00,69.3,59.1,29.62,SSE,164,0.0,0.0,70,0.00,,---,0.00,VWS V13.01,2013-07-10 05:58:00,
2013-07-10 02:00:00,69.3,59.1,29.62,SSE,163,0.0,0.0,70,0.00,,---,0.00,VWS V13.01,2013-07-10 06:00:00,
2013-07-10 02:02:00,69.3,59.5,29.62,SSE,164,0.0,0.0,71,0.00,,---,0.00,VWS V13.01,2013-07-10 06:02:00,
2013-07-10 02:03:00,69.3,59.5,29.62,SSE,164,0.0,0.0,71,0.00,,---,0.00,VWS V13.01,2013-07-10 06:03:00,
2013-07-10 02:04:00,69.3,59.5,29.62,SSE,164,0.0,0.0,71,0.00,,---,0.00,VWS V13.01,2013-07-10 06:04:00,
2013-07-10 02:06:00,69.3,59.5,29.62,SSE,164,0.0,0.0,71,0.00,,---,0.00,VWS V13.01,2013-07-10 06:06:00,
2013-07-10 02:08:00,69.3,59.9,29.62,SSE,164,0.0,0.0,72,0.00,,---,0.00,VWS V13.01,2013-07-10 06:08:00,
2013-07-10 02:10:00,69.3,59.9,29.62,SSE,164,0.0,0.0,72,0.00,,---,0.00,VWS V13.01,2013-07-10 06:10:00,
2013-07-10 02:12:00,69.3,59.9,29.62,SSE,164,0.0,0.0,72,0.00,,---,0.00,VWS V13.01,2013-07-10 06:12:00,
2013-07-10 02:14:00,69.3,60.2,29.62,SSE,164,0.0,0.0,73,0.00,,---,0.00,VWS V13.01,2013-07-10 06:14:00,
2013-07-10 02:16:00,69.3,60.6,29.62,SSE,163,0.0,0.0,74,0.00,,---,0.00,VWS V13.01,2013-07-10 06:16:00,
2013-07-10 02:18:00,69.4,61.2,29.62,SSE,164,0.0,0.0,75,0.00,,---,0.00,VWS V13.01,2013-07-10 06:18:00,
2013-07-10 02:20:00,69.3,61.0,29.62,SSE,164,0.0,0.0,75,0.00,,---,0.00,VWS V13.01,2013-07-10 06:20:00,
2013-07-10 02:22:00,69.3,61.0,29.62,SSE,164,0.0,0.0,75,0.00,,---,0.00,VWS V13.01,2013-07-10 06:22:00,
2013-07-10 02:24:00,69.4,60.8,29.62,SSE,164,0.0,0.0,74,0.00,,---,0.00,VWS V13.01,2013-07-10 06:24:00,
2013-07-10 02:26:00,69.4,61.9,29.62,SSE,164,0.0,0.0,77,0.00,,---,0.00,VWS V13.01,2013-07-10 06:26:00,
2013-07-10 02:28:00,69.4,61.9,29.62,SSE,164,0.0,0.0,77,0.00,,---,0.00,VWS V13.01,2013-07-10 06:28:00,
2013-07-10 02:30:00,69.3,61.8,29.62,SSE,164,0.0,0.0,77,0.00,,---,0.00,VWS V13.01,2013-07-10 06:30:00,
2013-07-10 02:32:00,69.3,61.8,29.62,SSE,164,0.0,0.0,77,0.00,,---,0.00,VWS V13.01,2013-07-10 06:32:00,
2013-07-10 02:34:00,69.3,61.8,29.62,SSE,164,0.0,0.0,77,0.00,,---,0.00,VWS V13.01,2013-07-10 06:34:00,
2013-07-10 02:36:00,69.1,61.6,29.62,SSE,164,0.0,0.0,77,0.00,,---,0.00,VWS V13.01,2013-07-10 06:36:00,
2013-07-10 02:37:00,69.1,61.6,29.62,SSE,164,0.0,0.0,77,0.00,,---,0.00,VWS V13.01,2013-07-10 06:37:00,
2013-07-10 02:38:00,69.1,61.6,29.62,SSE,164,0.0,0.0,77,0.00,,---,0.00,VWS V13.01,2013-07-10 06:38:00,
2013-07-10 02:40:00,69.1,61.6,29.62,SSE,164,0.0,0.0,77,0.00,,---,0.00,VWS V13.01,2013-07-10 06:40:00,
2013-07-10 02:42:00,69.1,61.6,29.62,SSE,164,0.0,0.0,77,0.00,,---,0.00,VWS V13.01,2013-07-10 06:42:00,
2013-07-10 02:44:00,69.1,61.6,29.62,SSE,164,0.0,0.0,77,0.00,,---,0.00,VWS V13.01,2013-07-10 06:44:00,
2013-07-10 02:46:00,69.1,61.6,29.59,SSE,164,0.0,0.0,77,0.00,,---,0.00,VWS V13.01,2013-07-10 06:46:00,
2013-07-10 02:47:00,68.9,61.4,29.59,SSE,164,0.0,0.0,77,0.00,,---,0.00,VWS V13.01,2013-07-10 06:47:00,
2013-07-10 02:48:00,68.9,61.4,29.59,SSE,164,0.0,0.0,77,0.00,,---,0.00,VWS V13.01,2013-07-10 06:48:00,
2013-07-10 02:50:00,68.9,61.8,29.59,SSE,164,0.0,0.0,78,0.00,,---,0.00,VWS V13.01,2013-07-10 06:50:00,
2013-07-10 02:52:00,68.9,61.8,29.59,SSE,164,0.0,0.0,78,0.00,,---,0.00,VWS V13.01,2013-07-10 06:52:00,
2013-07-10 02:53:00,68.9,61.4,29.59,SSE,164,0.0,0.0,77,0.00,,---,0.00,VWS V13.01,2013-07-10 06:53:00,
2013-07-10 02:54:00,68.9,61.4,29.59,SSE,164,0.0,0.0,77,0.00,,---,0.00,VWS V13.01,2013-07-10 06:54:00,
2013-07-10 02:56:00,69.1,61.9,29.59,SSE,164,0.0,0.0,78,0.00,,---,0.00,VWS V13.01,2013-07-10 06:56:00,
2013-07-10 02:58:00,69.3,62.1,29.59,SSE,164,0.0,0.0,78,0.00,,---,0.00,VWS V13.01,2013-07-10 06:58:00,
2013-07-10 03:00:00,69.4,63.0,29.59,SSE,164,0.0,0.0,80,0.00,,---,0.00,VWS V13.01,2013-07-10 07:00:00,
2013-07-10 03:02:00,69.4,63.0,29.59,SSE,164,0.0,0.0,80,0.00,,---,0.00,VWS V13.01,2013-07-10 07:02:00,
2013-07-10 03:04:00,69.3,62.8,29.59,SSE,164,0.0,0.0,80,0.00,,---,0.00,VWS V13.01,2013-07-10 07:04:00,
2013-07-10 03:06:00,69.1,63.0,29.59,SSE,164,0.0,0.0,81,0.00,,---,0.00,VWS V13.01,2013-07-10 07:06:00,
2013-07-10 03:08:00,69.3,63.2,29.59,SSE,164,0.0,0.0,81,0.00,,---,0.00,VWS V13.01,2013-07-10 07:08:00,
2013-07-10 03:10:00,69.3,63.2,29.59,SSE,164,0.0,0.0,81,0.00,,---,0.00,VWS V13.01,2013-07-10 07:10:00,
2013-07-10 03:12:00,69.3,63.2,29.59,SSE,164,0.0,0.0,81,0.00,,---,0.00,VWS V13.01,2013-07-10 07:12:00,
2013-07-10 03:14:00,69.3,63.5,29.59,SSE,164,0.0,0.0,82,0.00,,---,0.00,VWS V13.01,2013-07-10 07:14:00,
2013-07-10 03:16:00,69.3,63.5,29.59,SSE,164,0.0,0.0,82,0.00,,---,0.00,VWS V13.01,2013-07-10 07:16:00,
2013-07-10 03:17:00,69.3,63.5,29.59,SSE,164,0.0,0.0,82,0.00,,---,0.00,VWS V13.01,2013-07-10 07:17:00,
2013-07-10 03:18:00,69.3,63.5,29.59,SSE,164,0.0,0.0,82,0.00,,---,0.00,VWS V13.01,2013-07-10 07:18:00,
2013-07-10 03:20:00,69.3,63.5,29.59,SSE,164,0.0,0.0,82,0.00,,---,0.00,VWS V13.01,2013-07-10 07:20:00,
2013-07-10 03:22:00,69.3,63.5,29.59,SSE,164,0.0,0.0,82,0.00,,---,0.00,VWS V13.01,2013-07-10 07:22:00,
2013-07-10 03:23:00,69.3,63.5,29.59,SSE,164,0.0,0.0,82,0.00,,---,0.00,VWS V13.01,2013-07-10 07:23:00,
2013-07-10 03:24:00,69.3,63.5,29.59,SSE,164,0.0,0.0,82,0.00,,---,0.00,VWS V13.01,2013-07-10 07:24:00,
2013-07-10 03:28:00,69.4,63.7,29.59,SSE,164,0.0,0.0,82,0.00,,---,0.00,VWS V13.01,2013-07-10 07:28:00,
2013-07-10 03:34:00,69.6,63.9,29.59,SSE,164,0.0,0.0,82,0.00,,---,0.00,VWS V13.01,2013-07-10 07:34:00,
2013-07-10 03:39:00,70.0,64.6,29.59,SSE,163,0.0,0.0,83,0.00,,---,0.00,VWS V13.01,2013-07-10 07:39:00,
2013-07-10 03:45:00,70.5,65.1,29.59,South,176,0.0,0.0,83,0.00,,---,0.00,VWS V13.01,2013-07-10 07:45:00,
2013-07-10 03:50:00,70.5,65.8,29.59,South,176,0.0,0.0,85,0.00,,---,0.00,VWS V13.01,2013-07-10 07:50:00,
2013-07-10 03:55:00,70.9,66.5,29.59,South,176,0.0,0.0,86,0.00,,---,0.00,VWS V13.01,2013-07-10 07:55:00,
2013-07-10 04:00:00,71.2,67.2,29.59,South,176,0.0,0.0,87,0.00,,---,0.00,VWS V13.01,2013-07-10 08:00:00,
2013-07-10 04:06:00,71.6,67.5,29.59,South,176,0.0,0.0,87,0.00,,---,0.00,VWS V13.01,2013-07-10 08:06:00,
2013-07-10 04:11:00,71.4,67.3,29.59,South,176,0.0,0.0,87,0.00,,---,0.00,VWS V13.01,2013-07-10 08:11:00,
2013-07-10 04:16:00,71.4,67.0,29.56,South,176,0.0,0.0,86,0.00,,---,0.00,VWS V13.01,2013-07-10 08:16:00,
2013-07-10 04:21:00,71.2,66.8,29.56,South,176,0.0,0.0,86,0.00,,---,0.00,VWS V13.01,2013-07-10 08:21:00,
2013-07-10 04:26:00,71.2,66.8,29.56,South,176,0.0,0.0,86,0.00,,---,0.00,VWS V13.01,2013-07-10 08:26:00,
2013-07-10 04:32:00,71.6,66.9,29.56,South,176,0.0,0.0,85,0.00,,---,0.00,VWS V13.01,2013-07-10 08:32:00,
2013-07-10 04:37:00,72.5,68.4,29.56,SW,214,0.0,0.0,87,0.00,,---,0.00,VWS V13.01,2013-07-10 08:37:00,
2013-07-10 04:43:00,73.0,67.2,29.56,SSW,208,0.0,0.0,82,0.00,,---,0.00,VWS V13.01,2013-07-10 08:43:00,
2013-07-10 04:48:00,73.4,64.2,29.56,SSW,200,0.0,0.0,73,0.00,,---,0.00,VWS V13.01,2013-07-10 08:48:00,
2013-07-10 04:53:00,73.8,61.7,29.56,South,169,0.0,0.0,66,0.00,,---,0.00,VWS V13.01,2013-07-10 08:53:00,
2013-07-10 04:58:00,73.9,60.1,29.56,SW,219,0.0,0.0,62,0.00,,---,0.00,VWS V13.01,2013-07-10 08:58:00,
2013-07-10 05:04:00,74.1,57.4,29.56,SW,214,5.4,7.2,56,0.00,,---,0.00,VWS V13.01,2013-07-10 09:04:00,
2013-07-10 05:09:00,73.8,62.1,29.56,South,189,0.0,0.0,67,0.00,,---,0.00,VWS V13.01,2013-07-10 09:09:00,
2013-07-10 05:14:00,73.6,65.2,29.56,SSW,202,5.4,7.2,75,0.00,,---,0.00,VWS V13.01,2013-07-10 09:14:00,
2013-07-10 05:19:00,73.4,66.5,29.56,SSW,202,4.7,6.3,79,0.00,,---,0.00,VWS V13.01,2013-07-10 09:19:00,
2013-07-10 05:25:00,73.4,67.2,29.56,SW,222,4.7,6.3,81,0.00,,---,0.00,VWS V13.01,2013-07-10 09:25:00,
2013-07-10 05:30:00,73.4,67.6,29.56,WSW,238,0.0,0.0,82,0.00,,---,0.00,VWS V13.01,2013-07-10 09:30:00,
2013-07-10 05:35:00,73.2,67.8,29.56,SSW,197,0.0,0.0,83,0.00,,---,0.00,VWS V13.01,2013-07-10 09:35:00,
2013-07-10 05:41:00,73.2,68.1,29.56,WSW,244,0.0,0.0,84,0.00,,---,0.00,VWS V13.01,2013-07-10 09:41:00,
2013-07-10 05:46:00,73.4,68.3,29.56,SW,230,0.0,0.0,84,0.00,,---,0.00,VWS V13.01,2013-07-10 09:46:00,
2013-07-10 05:51:00,73.4,68.6,29.56,SSE,167,0.0,0.0,85,0.00,,---,0.00,VWS V13.01,2013-07-10 09:51:00,
2013-07-10 05:56:00,73.6,69.1,29.56,SSW,212,0.0,0.0,86,0.00,,---,0.00,VWS V13.01,2013-07-10 09:56:00,
2013-07-10 06:01:00,73.6,69.1,29.56,SW,230,0.0,0.0,86,0.00,,---,0.00,VWS V13.01,2013-07-10 10:01:00,
2013-07-10 06:07:00,73.8,69.7,29.56,SW,220,0.0,0.0,87,0.00,,---,0.00,VWS V13.01,2013-07-10 10:07:00,
2013-07-10 06:12:00,73.8,69.7,29.56,South,186,0.0,0.0,87,0.00,,---,0.00,VWS V13.01,2013-07-10 10:12:00,
2013-07-10 06:17:00,73.9,69.8,29.56,SSW,205,0.0,0.0,87,0.00,,---,0.00,VWS V13.01,2013-07-10 10:17:00,
2013-07-10 06:23:00,74.1,69.7,29.56,SSW,206,0.0,0.0,86,0.00,,---,0.00,VWS V13.01,2013-07-10 10:23:00,
2013-07-10 06:28:00,74.3,69.5,29.56,SSW,205,0.0,0.0,85,0.00,,---,0.00,VWS V13.01,2013-07-10 10:28:00,
2013-07-10 06:33:00,74.3,67.7,29.56,SSW,208,0.0,0.0,80,0.00,,---,0.00,VWS V13.01,2013-07-10 10:33:00,
2013-07-10 06:38:00,74.5,66.8,29.56,SW,233,0.0,0.0,77,0.00,,---,0.00,VWS V13.01,2013-07-10 10:38:00,
2013-07-10 06:43:00,74.5,64.5,29.56,SW,219,4.7,6.3,71,0.00,,---,0.00,VWS V13.01,2013-07-10 10:43:00,
2013-07-10 06:48:00,74.8,64.4,29.56,SSW,202,0.0,0.0,70,0.00,,---,0.00,VWS V13.01,2013-07-10 10:48:00,
2013-07-10 06:53:00,75.0,62.5,29.56,SSW,203,0.0,0.0,65,0.00,,---,0.00,VWS V13.01,2013-07-10 10:53:00,
2013-07-10 06:58:00,75.0,61.6,29.56,SW,214,4.0,5.4,63,0.00,,---,0.00,VWS V13.01,2013-07-10 10:58:00,
2013-07-10 07:03:00,75.2,59.4,29.53,South,185,4.0,5.4,58,0.00,,---,0.00,VWS V13.01,2013-07-10 11:03:00,
2013-07-10 07:09:00,75.7,56.3,29.53,SSW,205,0.0,0.0,51,0.00,,---,0.00,VWS V13.01,2013-07-10 11:09:00,
2013-07-10 07:14:00,75.7,53.5,29.53,SW,226,6.0,8.1,46,0.00,,---,0.00,VWS V13.01,2013-07-10 11:14:00,
2013-07-10 07:20:00,75.9,54.3,29.53,WSW,248,4.7,6.3,47,0.00,,---,0.00,VWS V13.01,2013-07-10 11:20:00,
2013-07-10 07:25:00,75.9,53.1,29.53,SW,224,0.0,0.0,45,0.00,,---,0.00,VWS V13.01,2013-07-10 11:25:00,
2013-07-10 07:30:00,75.7,52.9,29.53,WNW,288,0.0,0.0,45,0.00,,---,0.00,VWS V13.01,2013-07-10 11:30:00,
2013-07-10 07:35:00,75.6,53.3,29.53,NW,320,4.0,5.4,46,0.00,,---,0.00,VWS V13.01,2013-07-10 11:35:00,
2013-07-10 07:40:00,75.6,53.3,29.53,WNW,298,0.0,0.0,46,0.00,,---,0.00,VWS V13.01,2013-07-10 11:40:00,
2013-07-10 07:45:00,75.7,52.9,29.53,SW,230,0.0,0.0,45,0.00,,---,0.00,VWS V13.01,2013-07-10 11:45:00,
2013-07-10 07:51:00,75.9,51.8,29.53,SW,216,4.0,5.4,43,0.00,,---,0.00,VWS V13.01,2013-07-10 11:51:00,
2013-07-10 07:56:00,76.1,50.7,29.53,West,261,4.0,5.4,41,0.00,,---,0.00,VWS V13.01,2013-07-10 11:56:00,
2013-07-10 08:01:00,76.5,50.4,29.53,SW,226,5.4,7.2,40,0.00,,---,0.00,VWS V13.01,2013-07-10 12:01:00,
2013-07-10 08:06:00,76.6,49.8,29.53,WNW,282,3.4,4.5,39,0.00,,---,0.00,VWS V13.01,2013-07-10 12:06:00,
2013-07-10 08:11:00,77.2,48.2,29.53,SSW,207,0.0,0.0,36,0.00,,---,0.00,VWS V13.01,2013-07-10 12:11:00,
2013-07-10 08:16:00,77.5,47.0,29.50,SW,223,4.0,5.4,34,0.00,,---,0.00,VWS V13.01,2013-07-10 12:16:00,
2013-07-10 08:22:00,77.9,46.5,29.50,SSE,161,4.7,6.3,33,0.00,,---,0.00,VWS V13.01,2013-07-10 12:22:00,
2013-07-10 08:27:00,77.9,45.7,29.50,WSW,242,4.0,5.4,32,0.00,,---,0.00,VWS V13.01,2013-07-10 12:27:00,
2013-07-10 08:32:00,78.1,45.8,29.50,South,180,4.7,6.3,32,0.00,,---,0.00,VWS V13.01,2013-07-10 12:32:00,
2013-07-10 08:37:00,78.3,45.2,29.50,WNW,298,10.1,13.4,31,0.00,,---,0.00,VWS V13.01,2013-07-10 12:37:00,
2013-07-10 08:42:00,78.6,45.5,29.50,SE,124,3.4,4.5,31,0.00,,---,0.00,VWS V13.01,2013-07-10 12:42:00,
2013-07-10 08:48:00,78.6,44.6,29.50,SW,223,4.7,6.3,30,0.00,,---,0.00,VWS V13.01,2013-07-10 12:48:00,
2013-07-10 08:53:00,79.2,45.1,29.50,SW,229,4.7,6.3,30,0.00,,---,0.00,VWS V13.01,2013-07-10 12:53:00,
2013-07-10 08:58:00,80.6,39.4,29.50,South,191,4.7,6.3,23,0.00,,---,0.00,VWS V13.01,2013-07-10 12:58:00,
2013-07-10 09:03:00,83.1,37.9,29.50,SE,144,0.0,0.0,20,0.00,,---,0.00,VWS V13.01,2013-07-10 13:03:00,
2013-07-10 09:08:00,83.7,37.1,29.50,NNW,343,4.0,5.4,19,0.00,,---,0.00,VWS V13.01,2013-07-10 13:08:00,
2013-07-10 09:13:00,82.2,37.2,29.50,SW,226,0.0,0.0,20,0.00,,---,0.00,VWS V13.01,2013-07-10 13:13:00,
2013-07-10 09:19:00,81.7,36.8,29.50,SW,233,6.0,8.1,20,0.00,,---,0.00,VWS V13.01,2013-07-10 13:19:00,
2013-07-10 09:24:00,80.1,36.7,29.50,South,182,5.4,7.2,21,0.00,,---,0.00,VWS V13.01,2013-07-10 13:24:00,
2013-07-10 09:30:00,80.1,39.0,29.50,SW,232,4.7,6.3,23,0.00,,---,0.00,VWS V13.01,2013-07-10 13:30:00,
2013-07-10 09:35:00,79.3,38.4,29.50,WSW,243,5.4,7.2,23,0.00,,---,0.00,VWS V13.01,2013-07-10 13:35:00,
2013-07-10 09:40:00,80.2,39.1,29.50,North,10,0.0,0.0,23,0.00,,---,0.00,VWS V13.01,2013-07-10 13:40:00,
2013-07-10 09:46:00,80.1,39.0,29.50,South,169,4.0,5.4,23,0.00,,---,0.00,VWS V13.01,2013-07-10 13:46:00,
2013-07-10 09:51:00,79.3,38.4,29.50,SSW,207,4.0,5.4,23,0.00,,---,0.00,VWS V13.01,2013-07-10 13:51:00,
2013-07-10 09:56:00,79.2,38.2,29.50,SSW,199,6.0,8.1,23,0.00,,---,0.00,VWS V13.01,2013-07-10 13:56:00,
2013-07-10 10:01:00,78.4,40.8,29.50,SSW,194,4.7,6.3,26,0.00,,---,0.00,VWS V13.01,2013-07-10 14:01:00,
2013-07-10 10:07:00,78.6,40.9,29.50,SSW,194,0.0,0.0,26,0.00,,---,0.00,VWS V13.01,2013-07-10 14:07:00,
2013-07-10 10:12:00,78.6,39.9,29.50,SSW,207,7.4,9.8,25,0.00,,---,0.00,VWS V13.01,2013-07-10 14:12:00,
2013-07-10 10:13:00,78.8,40.0,29.50,WSW,239,6.0,8.1,25,0.00,,---,0.00,VWS V13.01,2013-07-10 14:13:00,
2013-07-10 10:18:00,79.2,39.3,29.50,WNW,286,3.4,4.5,24,0.00,,---,0.00,VWS V13.01,2013-07-10 14:18:00,
2013-07-10 10:23:00,79.5,38.5,29.50,SSE,167,0.0,0.0,23,0.00,,---,0.00,VWS V13.01,2013-07-10 14:23:00,
2013-07-10 10:29:00,80.4,38.1,29.50,South,172,4.0,5.4,22,0.00,,---,0.00,VWS V13.01,2013-07-10 14:29:00,
2013-07-10 10:34:00,81.9,36.9,29.47,South,187,3.4,4.5,20,0.00,,---,0.00,VWS V13.01,2013-07-10 14:34:00,
2013-07-10 10:40:00,84.0,37.4,29.47,SW,224,4.0,5.4,19,0.00,,---,0.00,VWS V13.01,2013-07-10 14:40:00,
2013-07-10 10:45:00,85.3,37.0,29.47,West,278,8.7,11.6,18,0.00,,---,0.00,VWS V13.01,2013-07-10 14:45:00,
2013-07-10 10:51:00,85.5,37.2,29.47,SSE,151,0.0,0.0,18,0.00,,---,0.00,VWS V13.01,2013-07-10 14:51:00,
2013-07-10 10:56:00,87.6,35.9,29.47,SSW,196,3.4,4.5,16,0.00,,---,0.00,VWS V13.01,2013-07-10 14:56:00,
2013-07-10 11:01:00,83.1,36.6,29.47,North,1,8.1,10.7,19,0.00,,---,0.00,VWS V13.01,2013-07-10 15:01:00,
2013-07-10 11:07:00,82.4,36.0,29.47,East,82,7.4,9.8,19,0.00,,---,0.00,VWS V13.01,2013-07-10 15:07:00,
2013-07-10 11:12:00,83.1,36.6,29.47,NNW,334,3.4,4.5,19,0.00,,---,0.00,VWS V13.01,2013-07-10 15:12:00,
2013-07-10 11:17:00,82.6,37.5,29.47,NNE,15,0.0,0.0,20,0.00,,---,0.00,VWS V13.01,2013-07-10 15:17:00,
2013-07-10 11:22:00,83.8,37.2,29.47,North,349,4.7,6.3,19,0.00,,---,0.00,VWS V13.01,2013-07-10 15:22:00,
2013-07-10 11:28:00,83.8,37.2,29.47,SSE,162,8.1,10.7,19,0.00,,---,0.00,VWS V13.01,2013-07-10 15:28:00,
2013-07-10 11:33:00,85.6,37.3,29.47,West,261,6.0,8.1,18,0.00,,---,0.00,VWS V13.01,2013-07-10 15:33:00,
2013-07-10 11:38:00,87.6,35.9,29.47,North,7,4.0,5.4,16,0.00,,---,0.00,VWS V13.01,2013-07-10 15:38:00,
2013-07-10 11:44:00,85.6,34.3,29.47,NW,322,5.4,7.2,16,0.00,,---,0.00,VWS V13.01,2013-07-10 15:44:00,
2013-07-10 11:49:00,87.6,35.9,29.44,South,186,5.4,7.2,16,0.00,,---,0.00,VWS V13.01,2013-07-10 15:49:00,
2013-07-10 11:54:00,87.1,35.5,29.44,WNW,303,4.0,5.4,16,0.00,,---,0.00,VWS V13.01,2013-07-10 15:54:00,
2013-07-10 11:59:00,84.9,33.8,29.44,NNW,341,4.7,6.3,16,0.00,,---,0.00,VWS V13.01,2013-07-10 15:59:00,
2013-07-10 12:05:00,82.9,36.5,29.44,NW,304,11.4,15.2,19,0.00,,---,0.00,VWS V13.01,2013-07-10 16:05:00,
2013-07-10 12:10:00,79.5,36.2,29.44,North,9,15.8,21.0,21,0.00,,---,0.00,VWS V13.01,2013-07-10 16:10:00,
2013-07-10 12:15:00,76.3,46.7,29.44,NW,321,8.1,10.7,35,0.00,,---,0.00,VWS V13.01,2013-07-10 16:15:00,
2013-07-10 12:20:00,74.8,56.0,29.44,NNE,27,4.7,6.3,52,0.04,,---,0.04,VWS V13.01,2013-07-10 16:20:00,
2013-07-10 12:25:00,75.0,57.3,29.44,North,9,8.7,11.6,54,0.04,,---,0.04,VWS V13.01,2013-07-10 16:25:00,
2013-07-10 12:31:00,76.1,61.7,29.44,NW,319,5.4,7.2,61,0.04,,---,0.04,VWS V13.01,2013-07-10 16:31:00,
2013-07-10 12:36:00,77.5,56.3,29.44,North,4,6.0,8.1,48,0.04,,---,0.04,VWS V13.01,2013-07-10 16:36:00,
2013-07-10 12:41:00,78.1,53.2,29.44,NW,321,4.7,6.3,42,0.04,,---,0.04,VWS V13.01,2013-07-10 16:41:00,
2013-07-10 12:46:00,79.2,51.4,29.44,NW,316,6.0,8.1,38,0.04,,---,0.04,VWS V13.01,2013-07-10 16:46:00,
2013-07-10 12:51:00,79.7,47.3,29.44,NNW,332,7.4,9.8,32,0.04,,---,0.04,VWS V13.01,2013-07-10 16:51:00,
2013-07-10 12:56:00,79.7,45.6,29.44,NNW,331,4.0,5.4,30,0.04,,---,0.04,VWS V13.01,2013-07-10 16:56:00,
2013-07-10 13:01:00,80.4,45.3,29.44,North,353,4.7,6.3,29,0.04,,---,0.04,VWS V13.01,2013-07-10 17:01:00,
2013-07-10 13:07:00,80.1,43.1,29.44,NW,312,8.1,10.7,27,0.04,,---,0.04,VWS V13.01,2013-07-10 17:07:00,
2013-07-10 13:12:00,81.7,42.5,29.44,NW,320,5.4,7.2,25,0.04,,---,0.04,VWS V13.01,2013-07-10 17:12:00,
2013-07-10 13:17:00,81.5,42.3,29.41,North,353,0.0,0.0,25,0.04,,---,0.04,VWS V13.01,2013-07-10 17:17:00,
2013-07-10 13:23:00,81.3,43.2,29.41,NW,314,0.0,0.0,26,0.00,,---,0.04,VWS V13.01,2013-07-10 17:23:00,
2013-07-10 13:28:00,82.8,40.1,29.41,WNW,298,7.4,9.8,22,0.00,,---,0.04,VWS V13.01,2013-07-10 17:28:00,
2013-07-10 13:33:00,84.4,40.2,29.41,SSE,152,4.7,6.3,21,0.00,,---,0.04,VWS V13.01,2013-07-10 17:33:00,
2013-07-10 13:38:00,84.4,40.2,29.41,ENE,74,7.4,9.8,21,0.00,,---,0.04,VWS V13.01,2013-07-10 17:38:00,
2013-07-10 13:43:00,81.3,36.5,29.41,North,10,12.4,16.6,20,0.00,,---,0.04,VWS V13.01,2013-07-10 17:43:00,
2013-07-10 13:48:00,80.6,39.4,29.41,NNE,13,5.4,7.2,23,0.00,,---,0.04,VWS V13.01,2013-07-10 17:48:00,
2013-07-10 13:54:00,79.0,40.2,29.41,NNW,335,13.1,17.4,25,0.00,,---,0.04,VWS V13.01,2013-07-10 17:54:00,
2013-07-10 13:59:00,79.2,43.3,29.41,SSE,150,8.7,11.6,28,0.00,,---,0.04,VWS V13.01,2013-07-10 17:59:00,
2013-07-10 14:04:00,80.8,40.7,29.41,North,353,0.0,0.0,24,0.00,,---,0.04,VWS V13.01,2013-07-10 18:04:00,
2013-07-10 14:09:00,84.4,39.0,29.41,SW,222,5.4,7.2,20,0.00,,---,0.04,VWS V13.01,2013-07-10 18:09:00,
2013-07-10 14:14:00,83.7,32.8,29.41,NW,312,5.4,7.2,16,0.00,,---,0.04,VWS V13.01,2013-07-10 18:14:00,
2013-07-10 14:19:00,82.8,32.0,29.41,South,171,5.4,7.2,16,0.00,,---,0.04,VWS V13.01,2013-07-10 18:19:00,
2013-07-10 14:24:00,82.4,31.8,29.41,SW,228,8.7,11.6,16,0.00,,---,0.04,VWS V13.01,2013-07-10 18:24:00,
2013-07-10 14:29:00,80.6,35.9,29.41,NNE,29,3.4,4.5,20,0.00,,---,0.04,VWS V13.01,2013-07-10 18:29:00,
2013-07-10 14:34:00,79.2,35.9,29.41,NNW,329,7.4,9.8,21,0.00,,---,0.04,VWS V13.01,2013-07-10 18:34:00,
2013-07-10 14:39:00,79.2,34.7,29.41,WNW,302,4.0,5.4,20,0.00,,---,0.04,VWS V13.01,2013-07-10 18:39:00,
2013-07-10 14:45:00,79.0,34.5,29.41,SSE,160,6.0,8.1,20,0.00,,---,0.04,VWS V13.01,2013-07-10 18:45:00,
2013-07-10 14:50:00,78.1,35.0,29.41,WSW,241,0.0,0.0,21,0.00,,---,0.04,VWS V13.01,2013-07-10 18:50:00,
2013-07-10 14:55:00,77.5,34.6,29.41,NNE,25,4.0,5.4,21,0.00,,---,0.04,VWS V13.01,2013-07-10 18:55:00,
2013-07-10 15:00:00,77.4,35.6,29.41,NNW,330,4.0,5.4,22,0.00,,---,0.04,VWS V13.01,2013-07-10 19:00:00,
2013-07-10 15:06:00,77.5,35.7,29.38,NW,326,5.4,7.2,22,0.00,,---,0.04,VWS V13.01,2013-07-10 19:06:00,
2013-07-10 15:11:00,77.7,37.0,29.38,WNW,282,5.4,7.2,23,0.00,,---,0.04,VWS V13.01,2013-07-10 19:11:00,
2013-07-10 15:17:00,77.7,37.0,29.38,SSW,204,7.4,9.8,23,0.00,,---,0.04,VWS V13.01,2013-07-10 19:17:00,
2013-07-10 15:22:00,78.1,36.2,29.38,WSW,243,4.7,6.3,22,0.00,,---,0.04,VWS V13.01,2013-07-10 19:22:00,
2013-07-10 15:28:00,79.0,35.8,29.38,WSW,243,4.0,5.4,21,0.00,,---,0.04,VWS V13.01,2013-07-10 19:28:00,
2013-07-10 15:33:00,79.9,36.5,29.38,WSW,244,6.7,8.9,21,0.00,,---,0.04,VWS V13.01,2013-07-10 19:33:00,
2013-07-10 15:38:00,79.2,37.1,29.38,NNW,332,4.0,5.4,22,0.00,,---,0.04,VWS V13.01,2013-07-10 19:38:00,
2013-07-10 15:43:00,79.7,38.7,29.38,West,279,0.0,0.0,23,0.00,,---,0.04,VWS V13.01,2013-07-10 19:43:00,
2013-07-10 15:48:00,79.9,37.7,29.38,WSW,240,4.0,5.4,22,0.00,,---,0.04,VWS V13.01,2013-07-10 19:48:00,
2013-07-10 15:53:00,80.2,38.0,29.38,West,280,8.7,11.6,22,0.00,,---,0.04,VWS V13.01,2013-07-10 19:53:00,
2013-07-10 15:58:00,83.5,38.2,29.38,NNE,17,13.1,17.4,20,0.00,,---,0.04,VWS V13.01,2013-07-10 19:58:00,
2013-07-10 16:04:00,85.3,38.4,29.38,NNE,30,0.0,0.0,19,0.00,,---,0.04,VWS V13.01,2013-07-10 20:04:00,
2013-07-10 16:09:00,84.2,37.5,29.38,NW,307,4.7,6.3,19,0.00,,---,0.04,VWS V13.01,2013-07-10 20:09:00,
2013-07-10 16:15:00,83.1,37.9,29.38,NNE,17,6.0,8.1,20,0.00,,---,0.04,VWS V13.01,2013-07-10 20:15:00,
2013-07-10 16:20:00,81.5,37.8,29.38,WNW,299,6.0,8.1,21,0.00,,---,0.04,VWS V13.01,2013-07-10 20:20:00,
2013-07-10 16:25:00,80.6,40.5,29.38,West,279,4.0,5.4,24,0.00,,---,0.04,VWS V13.01,2013-07-10 20:25:00,
2013-07-10 16:31:00,80.4,42.4,29.38,NNE,16,6.0,8.1,26,0.00,,---,0.04,VWS V13.01,2013-07-10 20:31:00,
2013-07-10 16:36:00,80.6,41.6,29.35,NNW,337,8.7,11.6,25,0.00,,---,0.04,VWS V13.01,2013-07-10 20:36:00,
2013-07-10 16:42:00,80.6,42.6,29.35,WNW,298,5.4,7.2,26,0.00,,---,0.04,VWS V13.01,2013-07-10 20:42:00,
2013-07-10 16:48:00,80.1,42.1,29.35,NNW,331,12.4,16.6,26,0.00,,---,0.04,VWS V13.01,2013-07-10 20:48:00,
2013-07-10 16:53:00,80.2,42.3,29.35,NNW,342,7.4,9.8,26,0.00,,---,0.04,VWS V13.01,2013-07-10 20:53:00,
2013-07-10 16:58:00,80.8,42.7,29.35,North,357,4.7,6.3,26,0.00,,---,0.04,VWS V13.01,2013-07-10 20:58:00,
2013-07-10 17:03:00,80.4,42.4,29.35,WNW,287,8.7,11.6,26,0.00,,---,0.04,VWS V13.01,2013-07-10 21:03:00,
2013-07-10 17:08:00,80.8,41.7,29.35,North,9,0.0,0.0,25,0.00,,---,0.04,VWS V13.01,2013-07-10 21:08:00,
2013-07-10 17:13:00,83.1,40.4,29.35,NW,323,6.7,8.9,22,0.00,,---,0.04,VWS V13.01,2013-07-10 21:13:00,
2013-07-10 17:18:00,85.5,38.5,29.35,North,0,5.4,7.2,19,0.00,,---,0.04,VWS V13.01,2013-07-10 21:18:00,
2013-07-10 17:24:00,84.7,38.0,29.35,NNE,27,15.8,21.0,19,0.00,,---,0.04,VWS V13.01,2013-07-10 21:24:00,
2013-07-10 17:29:00,84.7,38.0,29.35,NW,313,12.1,16.1,19,0.00,,---,0.04,VWS V13.01,2013-07-10 21:29:00,
2013-07-10 17:35:00,87.8,39.1,29.35,NE,38,4.7,6.3,18,0.00,,---,0.04,VWS V13.01,2013-07-10 21:35:00,
2013-07-10 17:40:00,86.9,38.3,29.35,WNW,285,6.0,8.1,18,0.00,,---,0.04,VWS V13.01,2013-07-10 21:40:00,
2013-07-10 17:45:00,84.4,37.7,29.35,NW,325,5.4,7.2,19,0.00,,---,0.04,VWS V13.01,2013-07-10 21:45:00,
2013-07-10 17:50:00,87.3,38.6,29.35,ENE,73,4.7,6.3,18,0.00,,---,0.04,VWS V13.01,2013-07-10 21:50:00,
2013-07-10 17:56:00,88.0,39.2,29.35,NW,326,5.4,7.2,18,0.00,,---,0.04,VWS V13.01,2013-07-10 21:56:00,
2013-07-10 18:01:00,86.7,35.2,29.32,WNW,298,6.0,8.1,16,0.00,,---,0.04,VWS V13.01,2013-07-10 22:01:00,
2013-07-10 18:06:00,87.3,35.6,29.32,North,357,4.0,5.4,16,0.00,,---,0.04,VWS V13.01,2013-07-10 22:06:00,
2013-07-10 18:11:00,87.6,35.9,29.32,NNW,341,6.0,8.1,16,0.00,,---,0.04,VWS V13.01,2013-07-10 22:11:00,
2013-07-10 18:16:00,88.0,34.6,29.35,NNW,328,8.1,10.7,15,0.00,,---,0.04,VWS V13.01,2013-07-10 22:16:00,
2013-07-10 18:21:00,86.7,35.2,29.35,NNW,337,7.4,9.8,16,0.00,,---,0.04,VWS V13.01,2013-07-10 22:21:00,
2013-07-10 18:27:00,84.2,36.2,29.35,SW,224,12.1,16.1,18,0.00,,---,0.04,VWS V13.01,2013-07-10 22:27:00,
2013-07-10 18:32:00,86.5,38.0,29.32,North,357,8.7,11.6,18,0.00,,---,0.04,VWS V13.01,2013-07-10 22:32:00,
2013-07-10 18:37:00,85.6,34.3,29.32,NNW,327,7.4,9.8,16,0.00,,---,0.04,VWS V13.01,2013-07-10 22:37:00,
2013-07-10 18:42:00,86.5,35.1,29.32,WNW,288,4.7,6.3,16,0.00,,---,0.04,VWS V13.01,2013-07-10 22:42:00,
2013-07-10 18:47:00,86.9,35.3,29.35,NNW,344,9.4,12.5,16,0.00,,---,0.04,VWS V13.01,2013-07-10 22:47:00,
2013-07-10 18:52:00,85.8,34.5,29.35,West,280,9.4,12.5,16,0.00,,---,0.04,VWS V13.01,2013-07-10 22:52:00,
2013-07-10 18:58:00,84.7,36.6,29.35,NNW,335,4.7,6.3,18,0.00,,---,0.04,VWS V13.01,2013-07-10 22:58:00,
2013-07-10 19:03:00,84.6,36.4,29.35,WNW,288,13.1,17.4,18,0.00,,---,0.04,VWS V13.01,2013-07-10 23:03:00,
2013-07-10 19:08:00,82.4,36.0,29.35,West,274,6.0,8.1,19,0.00,,---,0.04,VWS V13.01,2013-07-10 23:08:00,
2013-07-10 19:13:00,81.1,38.7,29.35,NNW,345,4.7,6.3,22,0.00,,---,0.04,VWS V13.01,2013-07-10 23:13:00,
2013-07-10 19:18:00,80.4,39.3,29.35,North,357,3.4,4.5,23,0.00,,---,0.04,VWS V13.01,2013-07-10 23:18:00,
2013-07-10 19:23:00,80.1,40.1,29.35,NW,315,6.0,8.1,24,0.00,,---,0.04,VWS V13.01,2013-07-10 23:23:00,
2013-07-10 19:29:00,79.7,40.8,29.35,North,2,6.0,8.1,25,0.00,,---,0.04,VWS V13.01,2013-07-10 23:29:00,
2013-07-10 19:34:00,79.5,40.7,29.35,NNE,30,8.1,10.7,25,0.00,,---,0.04,VWS V13.01,2013-07-10 23:34:00,
2013-07-10 19:39:00,79.5,41.7,29.35,NNW,341,11.4,15.2,26,0.00,,---,0.04,VWS V13.01,2013-07-10 23:39:00,
2013-07-10 19:45:00,79.3,42.5,29.35,WSW,246,0.0,0.0,27,0.00,,---,0.04,VWS V13.01,2013-07-10 23:45:00,
2013-07-10 19:50:00,79.3,41.5,29.35,WNW,302,8.7,11.6,26,0.00,,---,0.04,VWS V13.01,2013-07-10 23:50:00,
2013-07-10 19:55:00,79.2,42.3,29.35,North,353,6.0,8.1,27,0.00,,---,0.04,VWS V13.01,2013-07-10 23:55:00,
2013-07-10 20:00:00,79.2,42.3,29.35,West,272,3.4,4.5,27,0.00,,---,0.04,VWS V13.01,2013-07-11 00:00:00,
2013-07-10 20:06:00,79.2,42.3,29.35,NNW,341,6.0,8.1,27,0.00,,---,0.04,VWS V13.01,2013-07-11 00:06:00,
2013-07-10 20:11:00,79.3,42.5,29.35,North,353,8.7,11.6,27,0.00,,---,0.04,VWS V13.01,2013-07-11 00:11:00,
2013-07-10 20:18:00,76.5,32.5,29.38,North,357,9.4,12.5,20,0.00,,---,0.04,VWS V13.01,2013-07-11 00:18:00,
2013-07-10 20:24:00,74.1,31.7,29.38,NE,48,9.4,12.5,21,0.00,,---,0.04,VWS V13.01,2013-07-11 00:24:00,
2013-07-10 20:30:00,69.3,42.6,29.38,NE,49,4.7,6.3,38,0.00,,---,0.04,VWS V13.01,2013-07-11 00:30:00,
2013-07-10 20:35:00,68.4,48.5,29.38,North,353,6.7,8.9,49,0.00,,---,0.04,VWS V13.01,2013-07-11 00:35:00,
2013-07-10 20:40:00,67.8,52.0,29.38,NNW,337,6.0,8.1,57,0.00,,---,0.04,VWS V13.01,2013-07-11 00:40:00,
2013-07-10 20:46:00,68.4,46.8,29.38,NE,39,4.0,5.4,46,0.00,,---,0.04,VWS V13.01,2013-07-11 00:46:00,
2013-07-10 20:51:00,68.4,46.8,29.38,NNE,27,0.0,0.0,46,0.00,,---,0.04,VWS V13.01,2013-07-11 00:51:00,
2013-07-10 20:57:00,68.5,47.0,29.38,NNE,18,6.0,8.1,46,0.00,,---,0.04,VWS V13.01,2013-07-11 00:57:00,
2013-07-10 21:03:00,68.5,48.6,29.35,NE,43,0.0,0.0,49,0.00,,---,0.04,VWS V13.01,2013-07-11 01:03:00,
2013-07-10 21:09:00,68.2,49.4,29.35,NNW,340,4.0,5.4,51,0.00,,---,0.04,VWS V13.01,2013-07-11 01:09:00,
2013-07-10 21:14:00,68.0,52.2,29.35,NNE,13,0.0,0.0,57,0.00,,---,0.04,VWS V13.01,2013-07-11 01:14:00,
2013-07-10 21:20:00,68.4,53.0,29.35,North,353,0.0,0.0,58,0.00,,---,0.04,VWS V13.01,2013-07-11 01:20:00,
2013-07-10 21:25:00,68.9,49.5,29.35,North,11,0.0,0.0,50,0.00,,---,0.04,VWS V13.01,2013-07-11 01:25:00,
2013-07-10 21:30:00,69.1,49.1,29.38,NW,311,0.0,0.0,49,0.00,,---,0.04,VWS V13.01,2013-07-11 01:30:00,
2013-07-10 21:36:00,69.8,45.7,29.38,North,357,5.4,7.2,42,0.00,,---,0.04,VWS V13.01,2013-07-11 01:36:00,
2013-07-10 21:41:00,69.3,51.9,29.38,NNW,336,4.7,6.3,54,0.08,,---,0.12,VWS V13.01,2013-07-11 01:41:00,
2013-07-10 21:47:00,68.9,58.7,29.35,West,266,0.0,0.0,70,0.08,,---,0.12,VWS V13.01,2013-07-11 01:47:00,
2013-07-10 21:52:00,68.7,60.9,29.35,WSW,254,3.4,4.5,76,0.08,,---,0.12,VWS V13.01,2013-07-11 01:52:00,
2013-07-10 21:57:00,68.4,60.9,29.35,NNW,338,0.0,0.0,77,0.08,,---,0.12,VWS V13.01,2013-07-11 01:57:00,
2013-07-10 22:02:00,68.0,60.5,29.35,North,353,0.0,0.0,77,0.08,,---,0.12,VWS V13.01,2013-07-11 02:02:00,
2013-07-10 22:08:00,68.0,59.4,29.35,North,353,5.4,7.2,74,0.08,,---,0.12,VWS V13.01,2013-07-11 02:08:00,
2013-07-10 22:14:00,68.5,51.2,29.35,NW,322,6.0,8.1,54,0.08,,---,0.12,VWS V13.01,2013-07-11 02:14:00,
2013-07-10 22:19:00,68.5,48.1,29.38,NW,322,4.0,5.4,48,0.08,,---,0.12,VWS V13.01,2013-07-11 02:19:00,
2013-07-10 22:25:00,68.4,48.5,29.38,NNW,346,4.7,6.3,49,0.08,,---,0.12,VWS V13.01,2013-07-11 02:25:00,
2013-07-10 22:30:00,68.0,48.2,29.38,NNW,335,10.7,14.3,49,0.08,,---,0.12,VWS V13.01,2013-07-11 02:30:00,
2013-07-10 22:35:00,68.0,46.5,29.35,NNW,327,12.1,16.1,46,0.08,,---,0.12,VWS V13.01,2013-07-11 02:35:00,
2013-07-10 22:41:00,68.0,46.5,29.35,North,349,4.0,5.4,46,0.04,,---,0.12,VWS V13.01,2013-07-11 02:41:00,
2013-07-10 22:48:00,67.8,48.0,29.38,North,5,8.7,11.6,49,0.00,,---,0.12,VWS V13.01,2013-07-11 02:48:00,
2013-07-10 22:53:00,68.0,48.2,29.38,NNE,15,8.7,11.6,49,0.00,,---,0.12,VWS V13.01,2013-07-11 02:53:00,
2013-07-10 22:58:00,68.2,47.2,29.38,North,350,5.4,7.2,47,0.00,,---,0.12,VWS V13.01,2013-07-11 02:58:00,
2013-07-10 23:04:00,68.4,47.4,29.38,North,6,4.7,6.3,47,0.00,,---,0.12,VWS V13.01,2013-07-11 03:04:00,
2013-07-10 23:10:00,68.4,47.4,29.38,NW,313,6.0,8.1,47,0.00,,---,0.12,VWS V13.01,2013-07-11 03:10:00,
2013-07-10 23:15:00,68.2,49.4,29.38,NW,315,8.7,11.6,51,0.00,,---,0.12,VWS V13.01,2013-07-11 03:15:00,
2013-07-10 23:22:00,68.0,51.2,29.38,North,353,4.7,6.3,55,0.00,,---,0.12,VWS V13.01,2013-07-11 03:22:00,
2013-07-10 23:27:00,68.0,53.2,29.38,NNW,346,0.0,0.0,59,0.00,,---,0.12,VWS V13.01,2013-07-11 03:27:00,
2013-07-10 23:33:00,67.8,55.6,29.38,NNW,337,0.0,0.0,65,0.00,,---,0.12,VWS V13.01,2013-07-11 03:33:00,
2013-07-10 23:38:00,67.6,57.1,29.38,NW,316,3.4,4.5,69,0.00,,---,0.12,VWS V13.01,2013-07-11 03:38:00,
2013-07-10 23:43:00,67.6,57.9,29.38,North,350,4.0,5.4,71,0.00,,---,0.12,VWS V13.01,2013-07-11 03:43:00,
2013-07-10 23:48:00,67.6,57.9,29.38,NNW,338,3.4,4.5,71,0.00,,---,0.12,VWS V13.01,2013-07-11 03:48:00,
2013-07-10 23:54:00,67.6,58.3,29.38,NNW,335,0.0,0.0,72,0.00,,---,0.12,VWS V13.01,2013-07-11 03:54:00,